Погода в Нерюнгри

Погода в Нерюнгри : погода сейчас, прогноз погоды и архив. Всё, что Вы хотите узнать о погоде в Нерюнгри!

Хотите узнать прогноз погоды в Нерюнгри? Тогда Вам сюда: Погода в Нерюнгри

Поиск расширенной информации на нашем сайте:

Полезная информация:

Другие новости

Новости СМИ2

Главная страница сайта

Новости сайта

03.07.2017

Напоминаем, что на нашем специализированном сайте Метеоцентр.Азия вы можете получить высокодетализированные автоматические прогнозы погоды по пунктам России, СНГ и мира в авиационном формате (включающие направление и скорость ветра, видимость, явления погоды, количество и форму облачности, нижнюю и верхнюю границу облачности).

Рекомендуем:

Погода в Нерюнгри - сегодня

Время (UTC), дата Ветер
(°,м/с) 
Видим.   Явления Облачность Т
(°С)
Тd
(°С)
f(%) Тe
(°С)
Pmin
(гПа)
dP
(гПа)
Po
(мм)
O2
(г/м3)
Тmin Tmax R s Состояние
почвы
00 17.06.19 320 (СЗ) 20000 м    ясно 
+15.8 +7.1 56 +17  1010.5  686  260  +6.8        сухая 
03 17.06.19 310 (СЗ) 20000 м    3/3 600 м 
[Cu hum]
+20.5 +4.5 35 +21  1007.7  -1.1  685  256           
06 17.06.19 010 (С) 20000 м    3/3 1000 м 
[Cu hum]
+23.5 +3.7 27 +24  1005.3  -1.3  684  253           
09 17.06.19 010 (С) 20000 м    3/3 1000 м 
[Cu hum]
+23.1 +1.2 24 +23  1004.7  -0.7  683  253           
12 17.06.19 050 (СВ) 20000 м    3/3 1000 м 
[Sc diur, vesp]
+20.5 +0.9 27 +21  1006.2  0.6  684  256    +25.3       
15 17.06.19 040 (СВ) 20000 м    3/0 верхняя 
[Ci fib]
+13.7 +1.1 42 +14  1009.2  0.6  684  262           
18 17.06.19 тихо ()   20000 м    5/0 верхняя 
[Ci fib]
+11.8 +1.4 49 +12  1009.9  684  264           
21 17.06.19 тихо ()   20000 м    10/0 средняя, верхняя 
[Ac trans|Ci fib]
+12.5 +2.1 49 +13  1009.4  -0.2  684  263           
00 18.06.19 нст () 20000 м    6/0 верхняя 
[Ci fib]
+17.8 +4.1 40 +19  1006.6  -0.8  683  258  +10.1        сухая 
03 18.06.19 340 (С) 20000 м    8/4 600 м кучево-дожд., верхняя 
[Cb cap|Ci fib]
+22.8 +5 31 +23  1002.5  -2.2  682  253           
06 18.06.19 360 (С) 6-11{14}  20000 м    8/4 600 м кучево-дожд., верхняя 
[Cb cap|Ci fib]
+23.8 +4.9 29 +24  1000.3  -1.7  680  251           
09 18.06.19 350 (С) 8-12{17}  20000 м    10/4 600 м кучево-дожд., верхняя 
[Cb cap|Ci fib]
+24.3 +2.2 24 +24  998.9  -1.3  680  251           
12 18.06.19 020 (С) 6-10{14}  20000 м    4/1 1000 м верхняя 
[Sc diur, vesp|Ci fib]
+21.5 +1 26 +22  1000.8  680  254    +25.2       
15 18.06.19 020 (С) 2{10}  20000 м    3/0 средняя 
[Ac trans]
+14.7 +4.6 51 +15  1005  1.8  682  260           
18 18.06.19 010 (С) 20000 м    3/0 верхняя 
[Ci fib]
+11.4 +5.6 67 +12  1007.3  682  263           
21 18.06.19 010 (С) 20000 м    1/0 верхняя 
[Ci fib]
+10.5 +4.5 66 +10  1008.3  0.6  683  264           
00 19.06.19 030 (СВ) 20000 м    3/0 верхняя 
[Ci fib]
+16.1 +2.9 41 +16  1006.9  0.4  683  259  +9.2        сухая 
03 19.06.19 030 (СВ) 5{11}  20000 м    4/4 1000 м 
[Cu hum]
+20.3 +1.9 29 +20  1005.3  -0.2  683  256           
06 19.06.19 030 (СВ) 6-12{14}  20000 м    5/5 600 м кучево-дожд. 
[Cb cap]
+21.5 +1.7 27 +22  1004.2  -0.5  683  255           
09 19.06.19 030 (СВ) 4{13}  20000 м    5/5 600 м кучево-дожд. 
[Cb cap]
+19.5 +3.4 34 +20  1005.9  0.9  683  256           
12 19.06.19 080 (В) 20000 м    4/0 верхняя 
[Ci fib]
+16.3 +4.7 46 +16  1008.2  1.2  684  259    +22.2       
15 19.06.19 110 (В) 20000 м    3/0 верхняя 
[Ci fib]
+12 +5.8 66 +12  1011  1.1  685  263           
18 19.06.19 160 (Ю) 20000 м    3/0 верхняя 
[Ci fib]
+7.8 +4.1 77 +8  1013  0.5  685  268           
21 19.06.19 180 (Ю) 20000 м    4/0 средняя, верхняя 
[Ac trans|Ci fib]
+7.2 +4.4 82 +7  1013.9  0.5  686  268           
00 20.06.19 нст () 20000 м    3/0 средняя, верхняя 
[Ac trans|Ci fib]
+15 +5.6 53 +16  1011.8  0.7  686  261  +6.2        сухая 
Время (UTC), дата Ветер
(°,м/с) 
Видим.   Явления Облачность Т
(°С)
Тd
(°С)
f(%) Тe
(°С)
Pmin
(гПа)
dP
(гПа)
Po
(мм)
O2
(г/м3)
Тmin Tmax R s Состояние
почвы

Для получения пояснительной информации подведите курсор к названию столбца.

ПОГОДА в Нерюнгри - архив

Всё, что Вы хотите узнать о погоде в Нерюнгри - удобно и подробно!

Выберите нужную дату (начиная с 1 января 2018* года) и нажмите кнопку "Найти".
Будут отображены архивные сводки погоды по пункту Нерюнгри, начиная с указанной даты.


Отображать данные в формате CSV (для использования в таблицах Excel)


Внимание! Наш архив погоды предназначен исключительно для личного некоммерческого использования в познавательных целях. Если Вам необходимы официальные справки о состоянии погоды (для производственных, юридических, коммерческих и т.п. целей), обращайтесь в органы Росгидромета.

*Примечание: данная дата относится к архиву по метеостанциям СССР (Россия, СНГ, Балтия).
Архив по метеостанциям Зарубежной Европы и Азии (кроме Китая) хранится 10 дней, по другим регионам земного шара (Китай, Африка, Америка, Австралия, Океания) - 1 день.

Нерюнгри - район местоположения метеостанции


Название, широта, долгота, высота метеостанции:
Нерюнгри (Чульман) 56.8°ш. 124.9°д. 858 м над ур. моря [Российская Федерация]

Дополнительная информация

В oтличие oт бoльшинства пoгoдных сайтoв мы публикуем пoдрoбную метеoинфoрмацию в детальнoм прoфессиoнальнoм фoрмате.

Характеристики температуры и влажнoсти вoздуха измеряются на высoте 2 м в тени вдали oт зданий и деревьев.
Скoрoсть ветра измеряется на высoте 10 м (на урoвне рoста челoвека скoрoсть ветра ниже в 1.5-2 раза). Если метеoстанция нахoдится в гoрoде или в лесу, тo скoрoсть ветра занижена на 2-4 м/с пo сравнению с oткрытым местoм. Скoрoсть ветра над акватoриями крупных рек и oзёр, а также на вершинах хoлмoв на 2-5 м/с выше, чем в oбычных услoвиях.
Атмoсфернoе давление в разных тoчках местнoсти мoжет значительнo oтличаться oт давления на метеoстанции, в зависимoсти oт услoвий рельефа (при пoдъёме на 10 м давление пoнижается примернo на 1 мм рт.ст.).